Regional Weather Roundup
Issued by NWS

Home | Current Version | Previous Version | Graphics & Text | Print | Product List | Glossary On
Versions: 1 2 3 4 5 6 7 8 9 10 11 12 13 14 15 16 17 18 19 20 21 22 23 24 25 26 27
000
ASUS45 KBOU 282107
RWRCO

WEATHER ROUNDUP FOR COLORADO
NATIONAL WEATHER SERVICE DENVER/BOULDER CO
300 PM MDT FRI APR 28 2017

NOTE: "FAIR" INDICATES FEW OR NO CLOUDS BELOW 12000 FEET WITH NO
SIGNIFICANT WEATHER AND/OR OBSTRUCTIONS TO VISIBILITY.

COZ001>005-013-030-031-282200-
...NORTHWEST COLORADO...

CITY           SKY/WX    TMP DP  RH WIND       PRES   REMARKS
CRAIG          PTSUNNY   41  30  65 N16       29.78R
HAYDEN         FAIR      39  23  52 NW14      29.77R
MEEKER         PTSUNNY   42  30  62 N15G21    29.77R
MOUNT WERNER   NOT AVBL
STEAMBOAT SPGS FAIR      40  22  49 SW10      29.75S
WALDEN           N/A     34  19  55 E6        29.77R WCI  29
$$

COZ006>008-011-282200-
...WEST CENTRAL VALLEYS...

CITY           SKY/WX    TMP DP  RH WIND       PRES   REMARKS
GRAND JUNCTION FAIR      52  14  22 NW10G22   29.74S
MONTROSE       PTSUNNY   46  10  23 N6        29.74S
EAGLE          PTSUNNY   41  19  42 SW17      29.77R
RIFLE          PTSUNNY   39  29  67 SW23      29.78R
DELTA          CLOUDY    48  22  36 SW18G25   29.74R
NUCLA          CLOUDY    37  28  70 S22G28    29.80R
$$

COZ017>023-064>068-282200-
...SOUTHWEST COLORADO...

CITY           SKY/WX    TMP DP  RH WIND       PRES   REMARKS
DURANGO        FAIR      40  23  50 SW3       29.73R
CORTEZ         CLOUDY    41  28  60 N14       29.75R
PAGOSA SPRINGS PTSUNNY   36  28  74 SW9       29.74S
TELLURIDE      FLURRIES  28  18  68 W9G16     29.76R WCI  19
WOLF CREEK PAS LGT SNOW  19  18  93 SW12G23   29.77S WCI   7
$$

COZ009-010-012-014-032>034-037-058>063-282200-
...CENTRAL COLORADO...

CITY           SKY/WX    TMP DP  RH WIND       PRES   REMARKS
ASPEN          PTSUNNY   36  21  54 N9        29.73R
BUENA VISTA    CLOUDY    42   9  25 NW13      29.69R
COPPER MTN     SNOW      19  12  73 SE3       29.76R VSB 1/2
BERTHOUD PASS  LGT SNOW  12   1  62 SE13      29.76R WCI  -3
COTTONWOOD PAS CLOUDY    36  14  41 CALM      29.71R
GUNNISON       PTSUNNY   37  12  35 NE9       29.72R
KREMMLING      PTSUNNY   46  14  27 CALM      29.74R
LEADVILLE      LGT SNOW  24  16  71 N5        29.73R VSB 3/4 WCI  18
MONARCH PASS   CLOUDY    19  12  73 W10       29.84R WCI   8
SALIDA         CLOUDY    40  17  40 N7        29.78R
SUNLIGHT       CLOUDY    21  12  68 CALM      29.80S
WILKERSON PASS CLOUDY    28   7  40 E10G16    29.76R WCI  19
$$

COZ069>075-282200-
...SAN LUIS VALLEY/SANGRE DE CRISTO MOUNTAINS...

CITY           SKY/WX    TMP DP  RH WIND       PRES   REMARKS
ALAMOSA        PTSUNNY   47  22  37 S21G36    29.64R
LA VETA PASS   CLOUDY    34  19  55 S10G25    29.83R WCI  26
SAGUACHE       CLOUDY    36  21  55 NW22G29   29.69R
$$

COZ035-036-038>040-282200-
...NORTHERN COLORADO FRONT RANGE...

CITY           SKY/WX    TMP DP  RH WIND       PRES   REMARKS
DENVER INTL AP PTSUNNY   53  19  26 E10       29.72R
DMNS CITY PARK   N/A     49  19  30 N14G25    29.72R
AURORA         PTSUNNY   51  20  29 E10       29.72R
FRONT RANGE AP PTSUNNY   54  28  37 NE21      29.72R
ERIE MUNI ARPT FAIR      44  31  59 NW14G23   29.75R
BOULDER MUN AP CLOUDY    37  36  93 NW9       29.75F
CENTENNIAL     PTSUNNY   48  21  34 NE15      29.70R
BROOMFIELD     PTSUNNY   45  28  53 NW23G30   29.74R
FORT COLLINS   LGT RAIN  37  34  89 N13       29.81R
LONGMONT       LGT RAIN  46  37  73 W9G16     29.79R
$$

COZ041-046-047-076>085-087-088-282200-
...PIKES PEAK/PALMER DIVIDE AND SOUTHERN FOOTHILLS...

CITY           SKY/WX    TMP DP  RH WIND       PRES   REMARKS
COLO. SPRINGS  PTSUNNY   49  16  26 NE6       29.70R
A. F. ACADEMY  CLOUDY    45  12  26 NE6       29.70R
SCHRIEVER AFB  PTSUNNY   46  22  38 NE16G25   29.71R
ELLICOTT       LGT SNOW N/A N/A N/A NE17      29.69R
FALCON         CLOUDY    40  22  49 SW14G25   29.73R HAZE
FORT CARSON    CLOUDY    50  16  26 E12       29.68R
LIMON          PTSUNNY   51  29  42 E15       29.71R
MONUMENT HILL  CLOUDY    41  18  38 SE5       29.74R
TRINIDAD       FAIR      54  25  32 SW15G25   29.65S
$$

COZ042>045-048>051-090-091-282200-
...NORTHEAST COLORADO...

CITY           SKY/WX    TMP DP  RH WIND       PRES   REMARKS
GREELEY ARPT   LGT RAIN  40  35  83 NE23G30   29.78R
AKRON          CLOUDY    38  33  82 E20       29.77R
BURLINGTON     NOT AVBL
WRAY           NOT AVBL
STERLING       CLOUDY    37  34  87 E14G22    29.82R
HOLYOKE        DRIZZLE   37  36  93 E22G29    29.85R
FORT MORGAN    CLOUDY    46  33  60 NE21      29.78R
$$

COZ086-089-092>099-282200-
...SOUTHEAST COLORADO...

CITY           SKY/WX    TMP DP  RH WIND       PRES   REMARKS
PUEBLO         FAIR      57  20  23 SE14      29.64S
LA JUNTA       FAIR      59  26  28 E8        29.66S
LAMAR          CLOUDY    59  31  34 E14G25    29.66R
SPRINGFIELD      N/A     49  38  65 S16G25    29.73R
$$




USA.gov is the U.S. government's official web portal to all federal, state and local government web resources and services.